Wind_Speed
8 7 7 7 8 8 8 7 6 5 4 4 4 3 3 3 2 2 2 2 2 2 3 3 3 3 3 4 4 4 4 4 4 5 5 4 4 4 6 8 10 11 12
9 8 7 8 9 9 8 7 6 5 4 4 3 2 2 1 1 0 0 1 1 1 2 2 2 2 2 2 3 3 3 3 3 4 4 3 4 4 7 9 11 11 11
9 8 8 8 9 9 8 7 6 5 4 4 3 2 2 1 1 1 1 1 1 1 1 2 2 2 1 1 1 2 2 2 2 2 2 2 3 5 7 9 11 11 11
11 10 8 8 8 8 8 7 6 5 5 4 3 3 3 2 2 2 2 2 2 2 2 2 2 2 2 1 1 1 1 1 1 1 1 1 2 4 7 9 10 10 11
11 10 9 8 8 8 7 6 6 5 5 4 4 4 4 3 3 3 3 4 4 4 4 4 4 3 3 3 2 2 2 2 2 1 1 1 2 3 6 8 9 10 10
11 10 10 9 9 8 7 7 6 5 5 4 5 5 4 5 5 5 5 5 6 6 5 5 5 5 5 4 4 4 4 3 3 3 3 2 2 3 6 8 9 10 10
12 11 11 10 9 8 8 7 6 6 6 6 6 6 6 6 6 7 7 7 7 7 7 7 6 6 6 6 6 5 5 5 4 4 4 4 4 4 6 7 9 9 10
14 12 11 11 10 9 8 7 7 7 7 7 7 7 7 7 8 8 8 8 8 9 9 9 8 7 7 7 7 6 6 6 6 5 6 6 6 6 7 8 9 10 10
15 14 13 12 11 10 9 8 8 8 7 7 8 8 8 9 9 10 10 9 9 9 9 9 9 9 8 8 7 8 7 7 7 6 7 7 8 8 8 9 9 10 11
17 15 14 13 13 12 10 9 9 8 8 8 8 9 9 9 10 11 10 9 9 9 9 9 9 9 9 8 8 7 8 7 7 7 8 8 8 9 10 10 10 11 12
19 17 16 15 14 13 12 11 10 9 9 8 8 9 9 10 10 11 10 10 9 9 9 9 9 9 8 7 7 7 7 8 7 7 8 8 9 10 11 12 12 12 13
21 19 18 17 16 14 13 12 10 10 9 9 9 9 9 10 10 10 10 9 9 9 9 9 8 8 7 6 7 7 7 8 8 8 8 8 10 11 12 13 13 13 14
24 22 20 19 18 16 14 12 11 10 9 9 8 9 9 9 9 9 9 9 8 8 9 8 8 7 7 7 7 8 8 8 9 9 9 9 10 11 12 13 14 15 15
24 24 22 20 19 18 15 13 11 9 8 8 8 8 8 8 7 7 7 7 7 7 7 8 7 7 7 7 7 8 8 9 9 9 9 10 11 12 12 13 14 15 16
25 25 23 21 20 18 15 13 10 9 8 7 7 7 6 6 6 6 6 5 5 6 6 6 5 6 6 7 7 8 8 9 9 10 10 11 12 12 13 13 14 15 15
26 25 23 22 20 18 15 12 10 8 8 6 5 5 4 4 4 4 4 4 4 4 4 4 4 5 5 5 6 6 8 9 9 10 10 11 12 13 13 14 15 15 15
26 25 24 21 19 17 14 11 10 9 8 6 4 4 3 3 3 3 4 3 3 3 4 4 4 4 4 4 5 5 7 8 9 10 10 11 11 12 13 14 15 15 15
26 25 24 20 18 15 13 11 9 8 6 5 4 2 2 2 2 3 3 3 3 3 3 3 3 3 3 4 4 4 6 7 8 9 10 11 11 12 13 14 14 15 15
25 24 22 20 18 15 12 11 9 7 6 5 3 2 1 1 2 2 3 3 3 3 3 3 3 3 3 3 4 4 5 6 7 8 9 10 10 12 13 13 14 14 15
24 23 21 18 17 15 12 10 9 7 6 4 3 2 1 1 2 2 2 2 2 3 3 3 3 3 4 4 4 5 5 6 7 8 9 10 11 12 12 13 14 15 15
21 21 19 18 16 14 12 10 8 6 5 4 3 2 2 1 1 1 2 2 2 2 3 3 3 3 4 4 4 5 5 6 7 8 10 11 12 13 13 14 14 15 16
19 19 18 17 15 13 12 9 7 6 5 4 3 3 2 2 1 0 1 2 2 2 2 3 3 3 3 3 4 4 5 6 7 8 9 10 11 12 13 14 15 15 16
17 17 17 16 14 13 11 9 8 6 5 4 4 3 3 2 1 0 0 1 1 2 3 3 3 3 4 4 5 5 6 7 8 8 9 11 12 12 13 14 15 16 17
16 17 16 15 13 11 10 9 7 6 5 5 4 4 3 2 2 1 1 0 0 1 2 3 4 4 5 6 6 7 7 8 9 10 11 12 13 13 14 16 16 17 17
15 15 14 12 11 10 9 8 7 6 5 5 5 4 4 3 3 2 2 2 2 2 3 4 5 6 7 8 8 9 9 10 11 12 13 14 14 15 16 17 18 19 19
12 12 12 11 10 9 9 8 7 6 6 6 6 5 5 5 4 4 4 4 4 5 6 7 7 8 9 10 11 11 12 13 14 15 15 15 15 16 17 18 19 20 21
Wind_Direction
198 195 197 198 203 210 215 210 200 187 170 155 143 134 128 120 107 90 70 57 47 34 26 28 34 33 30 33 37 40 44 48 51 55 59 66 82 99 117 131 136 137 136
210 203 204 205 207 212 217 215 209 200 188 175 166 163 161 157 151 74 25 349 342 356 1 5 14 16 19 19 23 30 37 44 50 56 57 67 89 114 133 137 139 140 139
216 210 209 212 215 218 219 218 217 210 200 196 197 206 221 234 245 256 266 274 287 309 326 328 328 338 349 353 357 3 17 32 42 52 58 72 99 127 140 144 143 145 143
218 213 214 218 220 220 221 220 219 214 210 214 221 231 237 245 252 258 266 271 272 279 291 300 304 298 292 292 293 297 307 334 349 26 62 82 114 133 144 146 145 150 151
219 218 216 219 221 224 224 223 224 225 226 229 232 238 245 253 260 262 267 274 278 281 284 289 289 284 276 268 258 258 263 263 263 258 234 178 147 150 155 154 154 158 161
218 221 219 221 223 226 227 224 226 231 235 241 245 251 261 269 273 276 277 280 280 281 286 288 285 276 268 261 251 249 252 251 247 244 236 224 196 180 173 166 165 168 171
218 223 222 222 222 226 228 228 232 239 246 254 261 268 275 280 284 285 285 284 285 282 282 288 288 276 266 259 252 248 247 247 247 240 233 228 219 202 191 183 176 178 180
221 226 228 228 227 229 230 233 240 248 254 263 272 278 281 284 288 291 293 289 287 284 285 286 290 282 265 257 250 246 244 244 243 241 233 227 226 220 210 200 190 188 190
223 226 229 228 229 230 234 240 246 253 262 273 282 285 286 288 290 293 298 296 291 288 286 286 286 284 269 256 251 246 242 243 240 242 237 230 228 228 221 211 203 198 198
223 226 230 232 233 237 240 245 250 260 270 280 285 287 288 290 293 296 298 297 295 292 288 285 285 284 277 264 257 253 241 241 240 241 238 234 230 229 223 217 215 209 206
222 226 229 235 236 239 243 247 254 265 276 281 282 285 288 291 294 296 296 295 291 290 288 285 287 290 282 270 261 248 242 241 243 244 243 236 233 231 226 223 222 217 213
220 225 229 232 236 239 242 248 257 267 274 276 278 284 290 292 293 294 296 294 291 288 289 286 285 287 279 268 264 255 249 246 248 249 248 243 237 232 229 225 225 223 219
221 224 229 234 236 238 243 250 257 264 268 270 274 284 290 289 288 289 293 294 290 290 291 287 286 280 271 265 264 259 255 252 251 252 252 246 240 235 233 230 228 227 225
221 224 230 234 236 237 242 248 255 258 261 266 273 281 286 287 286 286 290 294 290 289 291 288 285 281 271 266 261 255 255 256 252 253 254 251 245 240 239 240 237 233 232
221 225 229 232 234 234 238 243 246 250 255 261 269 275 281 285 286 289 292 294 297 294 292 288 286 284 275 265 258 254 255 255 252 254 255 256 251 246 244 246 246 242 238
220 223 226 230 232 233 236 237 239 242 245 254 265 275 286 291 296 300 299 297 302 305 299 295 294 287 280 270 262 254 253 255 256 259 259 258 256 250 247 248 250 250 246
219 221 224 226 227 230 232 234 236 238 242 245 253 267 282 296 310 319 320 315 308 311 310 305 299 295 287 282 275 264 261 260 262 262 265 264 263 257 255 254 255 253 252
219 220 223 220 221 224 225 227 232 229 226 228 235 254 280 308 324 328 335 333 326 319 317 313 308 309 302 298 294 282 270 266 265 263 264 267 267 261 259 259 259 256 255
217 215 214 213 215 217 217 219 221 216 213 215 222 240 270 309 330 336 336 330 327 325 326 325 321 320 312 303 295 289 281 273 268 266 266 268 269 268 264 261 260 260 257
211 209 209 209 210 213 216 214 211 208 207 211 219 234 255 293 322 336 346 342 334 330 332 330 323 317 312 304 295 291 287 278 272 269 269 267 267 269 267 264 263 260 259
202 200 202 203 205 205 201 201 201 203 204 211 221 225 238 254 285 338 12 9 359 347 340 336 333 327 319 312 304 297 292 286 281 278 275 273 271 269 269 268 265 263 261
197 198 198 197 197 198 199 196 197 197 202 207 210 213 215 219 238 358 30 29 29 26 22 12 3 358 354 343 326 312 304 298 292 287 283 280 277 275 272 270 269 266 264
191 190 193 194 195 198 197 195 197 196 197 202 206 205 204 208 221 230 6 32 36 36 30 20 13 7 359 349 337 325 314 306 299 294 291 286 282 280 277 274 271 269 266
185 185 188 190 194 197 197 200 200 197 200 204 208 205 205 213 221 221 229 254 356 11 7 2 359 352 345 337 331 324 317 310 305 299 294 290 286 283 280 276 273 271 270
180 182 186 189 194 198 201 202 202 205 207 209 209 211 217 226 235 238 242 257 285 304 314 318 322 324 324 323 321 317 313 310 307 303 299 293 288 285 281 278 275 273 271
181 183 188 193 201 206 208 211 213 215 217 219 220 223 230 239 248 257 263 271 279 284 290 293 298 303 307 309 310 310 308 308 306 304 301 296 292 288 284 280 276 274 272
Height
5908 5908 5908 5909 5909 5910 5910 5910 5910 5911 5910 5910 5910 5911 5911 5911 5911 5911 5911 5910 5910 5910 5910 5910 5909 5909 5909 5908 5907 5906 5906 5905 5904 5904 5903 5902 5901 5901 5900 5900 5901 5902 5902
5908 5908 5908 5909 5909 5910 5910 5910 5910 5910 5910 5910 5910 5910 5910 5911 5910 5910 5910 5910 5910 5910 5910 5910 5909 5909 5908 5908 5907 5907 5906 5905 5905 5904 5903 5903 5902 5902 5901 5901 5902 5903 5904
5907 5907 5907 5908 5909 5909 5910 5910 5910 5910 5910 5910 5910 5910 5910 5910 5910 5910 5910 5910 5910 5910 5909 5909 5909 5909 5908 5908 5907 5907 5906 5906 5905 5904 5904 5904 5903 5902 5902 5902 5903 5904 5905
5905 5906 5906 5907 5908 5909 5909 5910 5910 5910 5910 5910 5910 5910 5910 5910 5910 5910 5910 5909 5909 5909 5909 5908 5908 5908 5908 5907 5907 5906 5906 5906 5905 5905 5904 5904 5904 5903 5904 5904 5904 5905 5906
5904 5904 5905 5906 5907 5908 5908 5909 5909 5909 5909 5909 5909 5909 5909 5909 5909 5909 5909 5909 5908 5908 5908 5907 5907 5907 5907 5906 5906 5906 5905 5905 5905 5905 5904 5904 5904 5904 5904 5904 5905 5906 5907
5902 5903 5904 5905 5906 5907 5908 5908 5908 5909 5908 5908 5908 5908 5908 5908 5908 5908 5908 5907 5907 5907 5907 5906 5906 5906 5905 5905 5905 5905 5904 5904 5904 5904 5904 5904 5904 5904 5905 5905 5906 5906 5907
5900 5901 5903 5904 5905 5906 5906 5907 5907 5907 5907 5907 5907 5907 5907 5907 5906 5906 5906 5905 5905 5905 5905 5904 5904 5904 5904 5904 5904 5903 5903 5903 5903 5903 5903 5904 5904 5904 5905 5905 5906 5907 5908
5899 5900 5901 5902 5903 5904 5905 5905 5906 5906 5906 5906 5905 5905 5905 5904 5904 5904 5904 5903 5903 5903 5902 5902 5902 5901 5901 5901 5902 5902 5902 5902 5902 5902 5902 5903 5903 5904 5904 5905 5906 5907 5908
5897 5898 5900 5901 5902 5903 5903 5904 5904 5904 5904 5904 5903 5903 5902 5902 5902 5901 5901 5901 5900 5900 5900 5900 5899 5899 5899 5899 5899 5900 5900 5901 5901 5901 5901 5902 5902 5903 5903 5904 5905 5906 5907
5895 5896 5898 5899 5900 5901 5901 5902 5902 5902 5902 5902 5901 5901 5900 5900 5899 5899 5898 5898 5898 5897 5897 5897 5897 5896 5896 5897 5897 5897 5898 5899 5899 5899 5899 5900 5901 5901 5902 5903 5904 5905 5906
5892 5894 5895 5897 5898 5899 5899 5900 5900 5900 5900 5899 5899 5898 5898 5897 5897 5896 5896 5895 5895 5895 5895 5895 5894 5894 5894 5894 5894 5895 5896 5897 5897 5897 5898 5898 5899 5899 5900 5901 5902 5903 5905
5889 5891 5893 5894 5895 5896 5897 5897 5898 5898 5897 5897 5897 5896 5895 5895 5894 5894 5893 5893 5892 5892 5892 5892 5892 5892 5891 5892 5892 5893 5894 5894 5895 5895 5896 5896 5897 5897 5898 5899 5900 5901 5903
5886 5888 5890 5891 5893 5894 5895 5895 5895 5895 5895 5895 5895 5894 5893 5893 5892 5891 5891 5891 5891 5890 5889 5889 5889 5890 5890 5890 5890 5891 5892 5892 5893 5893 5894 5894 5895 5895 5896 5897 5898 5899 5900
5882 5885 5887 5889 5890 5891 5892 5893 5893 5893 5893 5893 5893 5892 5892 5891 5890 5890 5889 5889 5889 5888 5888 5887 5887 5887 5888 5888 5888 5889 5889 5890 5891 5891 5892 5892 5893 5893 5894 5894 5895 5896 5897
5879 5881 5884 5886 5887 5888 5889 5890 5891 5891 5891 5891 5891 5890 5890 5889 5888 5888 5888 5887 5887 5886 5886 5886 5885 5886 5886 5886 5886 5887 5887 5888 5888 5889 5889 5890 5890 5891 5891 5892 5892 5893 5894
5875 5878 5880 5883 5884 5885 5887 5888 5888 5889 5889 5889 5889 5889 5888 5887 5887 5886 5886 5886 5885 5885 5885 5884 5884 5884 5884 5884 5885 5885 5885 5886 5886 5886 5887 5887 5888 5888 5889 5889 5890 5890 5891
5871 5874 5877 5879 5881 5883 5884 5885 5886 5887 5887 5888 5888 5887 5887 5886 5885 5885 5885 5884 5884 5884 5883 5883 5883 5883 5883 5883 5883 5883 5883 5884 5884 5884 5885 5885 5885 5886 5886 5887 5887 5888 5888
5867 5871 5874 5876 5878 5880 5882 5883 5884 5885 5886 5886 5886 5886 5885 5885 5885 5884 5884 5883 5883 5882 5882 5882 5882 5882 5882 5882 5882 5882 5882 5882 5882 5882 5882 5883 5883 5883 5883 5884 5884 5885 5886
5864 5868 5871 5874 5876 5878 5880 5882 5883 5884 5885 5885 5885 5884 5884 5884 5884 5883 5883 5882 5882 5882 5881 5881 5881 5881 5881 5881 5880 5880 5880 5880 5880 5880 5880 5880 5880 5880 5880 5881 5881 5882 5883
5861 5866 5869 5872 5875 5877 5878 5880 5882 5883 5883 5884 5883 5883 5883 5883 5883 5883 5882 5882 5881 5881 5880 5880 5880 5880 5880 5880 5879 5879 5879 5878 5878 5878 5878 5878 5878 5878 5878 5878 5878 5879 5880
5859 5864 5867 5870 5873 5875 5877 5879 5880 5882 5882 5882 5882 5882 5883 5883 5883 5882 5882 5881 5881 5880 5880 5879 5879 5879 5879 5878 5878 5878 5877 5877 5877 5876 5876 5876 5876 5876 5875 5875 5876 5876 5876
5858 5862 5866 5869 5872 5874 5877 5878 5879 5880 5881 5881 5881 5882 5882 5882 5882 5882 5881 5881 5880 5880 5879 5879 5879 5878 5878 5878 5877 5877 5876 5876 5875 5874 5874 5874 5873 5873 5873 5873 5873 5873 5873
5858 5862 5865 5868 5871 5874 5875 5877 5878 5879 5880 5880 5881 5881 5881 5881 5881 5881 5881 5880 5880 5880 5879 5879 5878 5878 5878 5877 5876 5876 5875 5875 5874 5873 5872 5871 5871 5870 5870 5870 5869 5869 5869
5858 5861 5865 5868 5871 5873 5874 5876 5877 5878 5879 5879 5880 5880 5881 5881 5881 5880 5880 5880 5879 5879 5879 5878 5878 5877 5877 5876 5875 5874 5874 5873 5872 5871 5870 5869 5868 5868 5867 5866 5866 5865 5865
5859 5861 5865 5868 5870 5872 5874 5875 5876 5877 5878 5878 5879 5879 5880 5880 5880 5880 5879 5879 5879 5878 5878 5877 5877 5876 5875 5874 5874 5873 5871 5870 5869 5869 5868 5866 5865 5864 5864 5863 5862 5861 5861
5859 5862 5865 5867 5869 5871 5872 5873 5874 5875 5876 5877 5878 5878 5878 5879 5879 5878 5878 5878 5878 5877 5877 5876 5875 5874 5873 5872 5871 5870 5869 5868 5867 5865 5864 5863 5862 5861 5859 5858 5858 5857 5856